Satellite-Ground Cal/Val Site Overpasses Predictions

Prediction of Satellite NPP Overpassing Cal/Val Site: Antarctic Dome C

Ground Cal/Val Site Location: Latitude: -75.10, Longitude: 123.35; Satellite-Ground Site NADIR distance within 100 km.

Table of predicted overpasses for the next 14.0 days since TLE Epoch: 11/1/2019
Interval Starting Time Ending Time Minimum Distance Time Minimum Distance (km)
1 11/03/2019 14:55:06 11/03/2019 14:55:35 11/03/2019 14:55:20 20.15
2 11/04/2019 14:36:24 11/04/2019 14:36:38 11/04/2019 14:36:31 87.07
3 11/05/2019 07:37:56 11/05/2019 07:38:23 11/05/2019 07:38:09 38.23
4 11/06/2019 07:19:09 11/06/2019 07:19:30 11/06/2019 07:19:19 71.82
5 11/08/2019 15:01:23 11/08/2019 15:01:47 11/08/2019 15:01:35 57.12
6 11/09/2019 14:42:32 11/09/2019 14:42:57 11/09/2019 14:42:45 52.09
7 11/10/2019 07:44:14 11/10/2019 07:44:33 11/10/2019 07:44:24 73.51
8 11/11/2019 07:25:20 11/11/2019 07:25:47 11/11/2019 07:25:33 34.44
9 11/13/2019 15:07:45 11/13/2019 15:07:54 11/13/2019 15:07:49 94.85


NCC Satellite Cal/Val Overpasses Prediction Service
